Location: Chateh
(58.6667°N, 118.6000°W)
Time: 10:52:58
(UTC+00:00)

PCSat - Pass Details

Date: 09 December 2023
Orbit: 784 x 791 km, 67.0° (Epoch: 01 March)

Event Time Altitude Azimuth Distance (km) Brightness Sun altitude
Exits shadow 13:48:39 36° 288° (WNW) 1,233 10.0 -19.1°
Maximum altitude 13:50:19 48° 334° (NNW) 1,031 9.9 -18.9°
Drops below altitude 10° 13:55:34 10° 49° (NE) 2,365 12.5 -18.2°
Sets 13:58:05 0° 55° (NE) 3,297 13.4 -17.9°
